Location: Benalto
(52.3088°N, 114.2787°W)
Time: 12:20:47
(UTC+00:00)

N. Korean satellite - Pass Details

Date: 08 December 2021
Orbit: 447 x 491 km, 97.3° (Epoch: 21 January)

Event Time Altitude Azimuth Distance (km) Brightness Sun altitude
Rises 13:51:08 0° 4° (N) 2,469 10.0 -14.6°
Reaches altitude 10° 13:53:21 10° 352° (N) 1,589 8.9 -14.3°
Maximum altitude 13:56:16 27° 293° (WNW) 898 7.3 -13.9°
Drops below altitude 10° 13:59:10 10° 234° (SW) 1,576 8.8 -13.5°
Sets 14:01:22 0° 222° (SW) 2,445 9.9 -13.1°
